Cloud_Cover
6 2 0 2 5 1 3 3 70 100 100 100 100 74 38 73 92 100 96 68 5 5 5 5 5 5 5 5 2 0 0 0 0 0 2 3 0 0 0 3 3 0 68
0 4 0 49 63 32 2 3 1 0 3 1 4 5 5 5 5 5 5 5 5 4 5 2 0 0 0 0 0 0 0 0 0 0 0 5 14 2 0 0 0 0 5
5 0 0 0 0 0 0 2 0 1 0 3 0 2 0 0 0 0 0 0 0 0 0 0 0 0 0 0 0 0 0 0 0 0 0 0 46 43 2 0 0 0 0
0 0 1 3 2 6 4 0 0 3 3 0 0 0 0 0 0 0 0 0 0 0 0 0 1 1 0 0 0 0 0 0 0 0 0 0 0 85 5 11 57 0 0
4 3 5 5 68 26 0 0 0 0 0 0 0 0 0 0 0 0 0 0 0 0 0 4 3 4 5 25 38 5 4 5 0 0 0 0 0 0 74 6 9 0 0
4 2 32 5 4 0 0 0 0 0 0 0 0 0 0 0 0 0 0 0 3 5 5 71 86 68 79 70 20 5 57 28 18 0 0 0 0 25 4 8 0 0 0
22 8 1 0 0 0 0 0 0 0 0 0 0 0 0 0 0 2 31 99 5 11 82 90 74 93 87 82 88 98 62 10 17 60 28 4 0 0 0 0 0 0 0
5 5 2 5 5 4 0 0 0 0 0 0 0 0 2 5 55 91 92 53 97 100 100 91 99 100 100 100 100 99 93 95 82 61 40 5 4 3 2 3 2 1 0
4 5 5 5 5 4 1 0 0 0 2 4 6 47 99 100 100 100 100 100 100 98 100 81 74 77 99 100 100 100 100 100 100 100 96 99 85 5 48 100 15 14 5
5 5 5 5 4 0 0 1 10 54 58 99 100 98 100 100 100 100 100 100 100 100 100 100 100 94 100 100 100 100 100 98 100 94 100 98 100 55 79 100 68 57 5
5 5 5 4 0 21 91 88 100 100 100 100 100 100 99 100 100 100 100 100 100 100 100 100 100 100 99 100 91 100 100 99 100 100 100 100 100 100 100 99 22 6 5
5 3 0 6 71 66 100 100 100 100 100 100 100 100 100 100 100 82 99 100 99 100 100 100 100 97 100 100 92 99 100 100 100 100 100 100 100 100 100 93 65 68 66
6 30 86 54 98 100 100 100 100 100 100 100 100 100 100 100 88 99 100 100 100 100 100 100 100 83 100 97 100 100 100 100 100 100 100 100 100 100 100 100 96 62 98
46 65 49 100 99 100 100 100 100 100 100 100 100 100 100 100 100 100 100 100 100 100 100 100 100 100 100 100 100 100 100 100 100 100 100 100 97 83 96 85 42 97 95
100 99 100 100 100 100 100 100 100 100 100 100 100 100 100 100 100 100 100 100 100 100 100 100 100 100 100 100 100 100 100 100 100 100 100 100 100 100 100 100 100 100 83
100 100 100 100 100 100 100 100 99 100 100 100 100 100 100 100 100 100 100 100 100 100 100 100 100 100 100 100 100 100 100 100 100 100 100 100 100 100 100 99 38 14 7
100 100 100 100 100 100 100 100 100 100 100 100 100 100 100 100 100 100 100 100 100 100 100 100 100 100 100 100 100 100 98 100 100 100 100 100 97 61 27 94 25 5 87
100 100 100 100 100 100 100 100 100 100 100 100 100 100 100 100 100 100 100 100 100 100 100 100 100 100 100 100 100 100 100 100 53 17 37 52 18 69 100 85 34 47 100
100 100 100 100 100 100 100 100 100 100 100 100 100 100 100 100 100 100 100 100 100 100 100 92 100 99 100 100 100 100 70 97 68 6 43 64 100 97 63 100 100 100 100
100 100 100 100 100 100 100 100 100 100 100 100 100 100 100 100 100 100 100 100 100 95 100 100 100 100 100 100 100 100 100 97 100 100 100 100 100 100 100 100 100 100 100
100 100 100 100 100 100 100 100 100 100 100 100 100 100 100 100 100 100 100 100 97 99 100 100 100 100 100 100 100 100 100 100 100 100 100 100 92 100 100 100 100 100 100
100 100 100 100 100 100 100 100 100 100 100 100 100 100 100 100 100 100 100 100 100 99 100 100 100 100 100 100 100 100 100 98 97 88 97 98 100 100 100 100 100 100 100
100 100 100 100 100 100 100 100 100 100 100 100 100 100 100 100 100 100 100 100 100 100 100 100 89 100 100 100 100 100 100 100 100 93 95 100 100 100 100 100 100 100 100
100 100 100 100 100 100 100 100 100 100 100 100 100 100 100 100 100 100 100 97 99 100 100 100 100 100 100 100 100 100 100 100 91 100 100 100 100 100 100 100 100 84 52
100 100 100 100 100 100 100 100 100 100 100 100 100 100 100 100 100 100 100 99 60 100 100 100 100 100 100 100 100 100 100 100 100 100 100 100 100 100 100 97 100 100 95
100 100 100 100 100 100 100 100 100 100 100 100 100 100 100 100 100 100 100 100 100 100 100 100 100 100 100 100 100 100 100 100 100 100 100 100 54 99 98 44 28 30 71